Budapest Ferihegy, Hungary

1:29 PM CEST on April 25, 2017 (GMT +0200)
Ferihegy

Weather History for LHBP - November, 2012

Change the Weather History Date:

Friday, November 30, 2012

  Actual Average Record
Temperature  
Mean Temperature 40 °F -  
Max Temperature 44 °F 35 °F 57 °F (2015)
Min Temperature 37 °F 23 °F 17 °F (2007)
Degree Days  
Heating Degree Days 24    
Moisture  
Dew Point 34 °F    
Average Humidity 77    
Maximum Humidity 87    
Minimum Humidity 70    
Precipitation  
Precipitation 0.00 in - - ()
Sea Level Pressure  
Sea Level Pressure 29.62 in    
Wind  
Wind Speed 10 mph ()    
Max Wind Speed 15 mph    
Max Gust Speed -    
Visibility 6.2 miles    
Events Rain    
Averages and records for this station are not official NWS values.
T = Trace of Precipitation, MM = Missing Value Source: Averaged Metar Reports

Daily Weather History Graph

Daily Weather History Graph

Search for Another Location

Airport or City:

Trip Planner

Search our weather history database for the weather conditions in past years. The results will help you decide how hot, cold, wet, or windy it might be!

Date:

Astronomy

Nov. 30, 2012 Rise Set
Actual Time 7:08 AM CET 3:54 PM CET
Civil Twilight 6:33 AM CET 4:29 PM CET
Nautical Twilight 5:55 AM CET 5:07 PM CET
Astronomical Twilight 5:18 AM CET 5:44 PM CET
Moon 5:33 PM CET (11/30) 8:27 AM CET (11/30)
Length of Visible Light 9h 55m
Length of Day
8h 46m
Full, 97% of the Moon is Illuminated
Nov 30
Full
Dec 6
Last Quarter
Dec 13
New
Dec 20
First Quarter
Dec 28
Full

Hourly Weather History & Observations

Time (CET) Temp. Windchill Dew Point Humidity Pressure Visibility Wind Dir Wind Speed Gust Speed Precip Events Conditions
12:00 AM 42.8 °F 35.4 °F 35.6 °F 76% 29.47 in 6.2 mi WNW 15.0 mph - N/A   Mostly Cloudy
12:30 AM 42.8 °F 35.4 °F 35.6 °F 76% 29.44 in 6.2 mi WNW 15.0 mph - N/A   Mostly Cloudy
1:00 AM 41.0 °F 33.9 °F 35.6 °F 81% 29.47 in 6.2 mi WNW 12.7 mph - N/A   Mostly Cloudy
1:30 AM 42.8 °F 37.5 °F 35.6 °F 76% 29.47 in 6.2 mi West 9.2 mph - N/A   Mostly Cloudy
2:00 AM 41.0 °F 34.7 °F 35.6 °F 81% 29.47 in 6.2 mi WNW 10.4 mph - N/A   Mostly Cloudy
2:30 AM 41.0 °F 34.3 °F 35.6 °F 81% 29.47 in 6.2 mi WNW 11.5 mph - N/A   Mostly Cloudy
3:00 AM 42.8 °F 38.6 °F 33.8 °F 70% 29.47 in 6.2 mi WNW 6.9 mph - N/A   Mostly Cloudy
3:30 AM 42.8 °F 38.0 °F 33.8 °F 70% 29.50 in - WNW 8.1 mph - N/A   Clear
4:00 AM 41.0 °F 35.2 °F 33.8 °F 76% 29.50 in - WNW 9.2 mph - N/A   Clear
4:30 AM 41.0 °F 34.3 °F 33.8 °F 76% 29.50 in 6.2 mi NW 11.5 mph - N/A   Overcast
5:00 AM 41.0 °F 34.7 °F 33.8 °F 76% 29.53 in 6.2 mi NW 10.4 mph - N/A   Mostly Cloudy
5:30 AM 41.0 °F 34.7 °F 33.8 °F 76% 29.53 in 6.2 mi NW 10.4 mph - N/A   Overcast
6:00 AM 41.0 °F 34.3 °F 32.0 °F 70% 29.53 in 6.2 mi NW 11.5 mph - N/A   Mostly Cloudy
6:30 AM 41.0 °F 34.3 °F 33.8 °F 76% 29.53 in - NW 11.5 mph - N/A   Clear
7:00 AM 41.0 °F 33.9 °F 33.8 °F 76% 29.56 in 6.2 mi NW 12.7 mph - N/A   Mostly Cloudy
7:30 AM 41.0 °F 34.3 °F 33.8 °F 76% 29.56 in 6.2 mi WNW 11.5 mph - N/A   Mostly Cloudy
8:00 AM 41.0 °F 34.7 °F 33.8 °F 76% 29.56 in 6.2 mi WNW 10.4 mph - N/A Rain Light Rain Showers
8:30 AM 41.0 °F 34.7 °F 33.8 °F 76% 29.56 in 6.2 mi WNW 10.4 mph - N/A   Mostly Cloudy
9:00 AM 41.0 °F 33.5 °F 33.8 °F 76% 29.56 in 6.2 mi WNW 13.8 mph - N/A   Mostly Cloudy
9:30 AM 41.0 °F 34.3 °F 33.8 °F 76% 29.59 in 6.2 mi WNW 11.5 mph - N/A   Mostly Cloudy
10:00 AM 42.8 °F 36.6 °F 35.6 °F 76% 29.59 in 6.2 mi WNW 11.5 mph - N/A   Mostly Cloudy
10:30 AM 42.8 °F 36.6 °F 35.6 °F 76% 29.62 in 6.2 mi WNW 11.5 mph - N/A   Mostly Cloudy
11:00 AM 42.8 °F 36.6 °F 35.6 °F 76% 29.62 in 6.2 mi WNW 11.5 mph - N/A   Mostly Cloudy
11:30 AM 42.8 °F 35.8 °F 35.6 °F 76% 29.62 in - West 13.8 mph - N/A   Clear
12:00 PM 44.6 °F 38.8 °F 35.6 °F 71% 29.62 in - WNW 11.5 mph - N/A   Clear
12:30 PM 42.8 °F 36.2 °F 33.8 °F 70% 29.62 in - West 12.7 mph - N/A   Clear
1:00 PM 44.6 °F 38.8 °F 35.6 °F 71% 29.65 in - West 11.5 mph - N/A   Clear
1:30 PM 44.6 °F 38.8 °F 35.6 °F 71% 29.62 in - WNW 11.5 mph - N/A   Clear
2:00 PM 44.6 °F 39.2 °F 35.6 °F 71% 29.65 in 6.2 mi WNW 10.4 mph - N/A   Scattered Clouds
2:30 PM 44.6 °F 38.8 °F 35.6 °F 71% 29.65 in 6.2 mi West 11.5 mph - N/A   Partly Cloudy
3:00 PM 42.8 °F 36.6 °F 33.8 °F 70% 29.65 in - WNW 11.5 mph - N/A   Clear
3:30 PM 42.8 °F 37.5 °F 33.8 °F 70% 29.68 in - WNW 9.2 mph - N/A   Clear
4:00 PM 39.2 °F 33.6 °F 33.8 °F 81% 29.68 in - WNW 8.1 mph - N/A   Clear
4:30 PM 39.2 °F 33.0 °F 33.8 °F 81% 29.71 in - West 9.2 mph - N/A   Clear
5:00 PM 39.2 °F 33.0 °F 33.8 °F 81% 29.71 in - WNW 9.2 mph - N/A   Clear
5:30 PM 39.2 °F 34.2 °F 33.8 °F 81% 29.71 in - WNW 6.9 mph - N/A   Clear
6:00 PM 39.2 °F 33.0 °F 33.8 °F 81% 29.71 in - WNW 9.2 mph - N/A   Clear
6:30 PM 41.0 °F 36.4 °F 33.8 °F 76% 29.74 in 6.2 mi West 6.9 mph - N/A   Mostly Cloudy
7:00 PM 41.0 °F 37.1 °F 33.8 °F 76% 29.74 in 6.2 mi WNW 5.8 mph - N/A   Partly Cloudy
7:30 PM 39.2 °F 34.2 °F 33.8 °F 81% 29.74 in - WNW 6.9 mph - N/A   Clear
8:00 PM 39.2 °F 32.5 °F 33.8 °F 81% 29.74 in - WNW 10.4 mph - N/A   Clear
8:30 PM 39.2 °F 33.0 °F 33.8 °F 81% 29.74 in - WNW 9.2 mph - N/A   Clear
9:00 PM 39.2 °F 35.0 °F 33.8 °F 81% 29.77 in - West 5.8 mph - N/A   Clear
9:30 PM 37.4 °F 32.8 °F 33.8 °F 87% 29.77 in - WSW 5.8 mph - N/A   Clear
10:00 PM 37.4 °F 32.8 °F 33.8 °F 87% 29.77 in - WNW 5.8 mph - N/A   Clear
10:30 PM 39.2 °F 35.9 °F 33.8 °F 81% 29.80 in - West 4.6 mph - N/A   Clear
11:00 PM 39.2 °F 35.9 °F 33.8 °F 81% 29.80 in - WNW 4.6 mph - N/A   Clear
11:30 PM 39.2 °F 35.0 °F 33.8 °F 81% 29.80 in - West 5.8 mph - N/A   Clear